Location: Archamps
(46.1365°N, 6.1329°E)
Time: 10:53:26
(UTC+00:00)

CZ-6A DEB - Pass Details

Date: 21 February 2024
Orbit: 823 x 884 km, 98.8° (Epoch: 12 April)

Event Time Altitude Azimuth Distance (km) Brightness Sun altitude
Rises 18:14:37 0° 208° (SSW) 3,473 ? -12.0°
Reaches altitude 10° 18:17:47 10° 227° (SW) 2,534 ? -12.5°
Maximum altitude 18:21:37 19° 270° (W) 1,988 ? -13.2°
Drops below altitude 10° 18:25:28 10° 313° (NW) 2,526 ? -13.9°
Sets 18:28:38 0° 332° (NNW) 3,458 ? -14.4°
